Location: Muenchen
(48.1800°N, 11.5800°E)
Time: 04:26:02
(UTC+01:00)

Sich 1 Rocket - Visible Passes

Search period start: 09 February 2016 00:00
Search period end: 19 February 2016 00:00
Orbit: 616 x 654 km, 82.5° (Epoch: 08 February)

Date Brightness Start Highest point End Pass type
(mag) Time Alt. Az. Time Alt. Az. Time Alt. Az.
09 Feb 5.1 04:33:41 10° N 04:37:47 35° ENE 04:41:55 10° SE visible
09 Feb 4.5 06:12:09 10° NNW 06:15:51 26° W 06:19:34 10° SW visible
09 Feb 4.7 18:49:17 10° SSW 18:53:29 45° WNW 18:57:44 10° N visible
10 Feb 3.8 04:55:51 10° N 05:00:19 68° E 05:04:47 10° SSE visible
10 Feb 5.2 06:35:39 10° NW 06:37:56 14° W 06:40:13 10° WSW visible
10 Feb 5.9 19:12:30 10° SW 19:16:05 24° WNW 19:19:41 10° NNW visible
11 Feb 6.3 03:44:27 16° ENE 03:44:27 16° ENE 03:46:56 10° ESE visible
11 Feb 3.5 05:22:08 55° WNW 05:22:41 61° W 05:27:07 10° S visible
11 Feb 3.5 17:55:40 10° S 18:00:03 75° E 18:04:27 10° NNE visible
11 Feb 6.6 19:36:40 10° W 19:38:50 13° WNW 19:41:00 10° NNW visible
12 Feb 6.0 04:09:18 18° ESE 04:09:18 18° ESE 04:10:42 10° SE visible
12 Feb 5.0 05:46:57 21° SW 05:46:57 21° SW 05:48:53 10° SSW visible
12 Feb 4.4 18:18:09 10° SSW 18:22:27 54° WNW 18:26:47 10° N visible
13 Feb 5.7 18:41:12 10° SW 18:45:00 28° WNW 18:48:51 10° N visible
14 Feb 6.5 19:05:01 10° WSW 19:07:43 16° WNW 19:10:25 10° NNW visible
16 Feb 5.5 18:09:57 10° SW 18:13:56 33° WNW 18:17:58 10° N visible
17 Feb 6.4 18:33:30 10° WSW 18:36:36 19° WNW 18:39:43 10° NNW visible
18 Feb 7.0 18:59:07 10° WNW 18:59:25 10° WNW 18:59:43 10° NW visible
